Volver al catálogo

ARIANE 1 DEB

ActivoHEO
NORAD 40781·DEBRIS·🇫🇷 France

Lanzado Dec 24, 1979 desde Guiana Space Centre

Loading…

Próximos Pases (próximas 24 horas)

TLE

ActualizadoSource: Space-Track

Época: Sep 11, 2026, 09:46 UTC

1 40781U 79104AJ  26254.40744373  .00000699  00000-0  28613-2 0  9998
2 40781  19.1016 327.9224 6498825 210.8553  85.2623  3.16840776 26179

Sigue ARIANE 1 DEB en tiempo real con AllMySat

Download on the App Store